Flag for Kiribati Weather past 2 weeks in Kiritimati, Christmas Island, Kiribati

Now
81 °F

Passing clouds.


Feels Like: 86 °F
Forecast: 80 / 84 °F
Wind: No wind

Location: Christmas / Cassidy

Current Time: Apr 18, 2015 at 10:59:18 PM

Latest Report: Apr 18, 2015 at 10:00 PM


Visibility: N/A

Pressure: 29.83 "Hg

Humidity: 84%

Dew point: 75 °F

Location of KiritimatiLocation

Historic Weather in Kiritimati — Graph

°F

Kiritimati temperature yesterday

Maximum temperature yesterday: 86 °F (at 1:00 PM)
Minimum temperature yesterday: 77 °F (at 3:00 AM)
Average temperature yesterday: 80 °F

Past Weeks' High & Low Weather Summary

 TemperatureHumidityPressure
High90 °F (Apr 9, 1:00 PM)100% (Apr 9, 3:00 AM)29.92 "Hg (Apr 9, 3:00 AM)
Low77 °F (Apr 4, 4:00 AM)62% (Apr 4, 1:00 PM)26.25 "Hg (Apr 12, 2:00 AM)
Average82 °F85%29.77 "Hg
* Reported Apr 3 9:00 PM — Apr 18 9:00 PM, Kiritimati, Weather by CustomWeather, © 2015

Note: Actual official high and low records may vary slightly from our data, if they occured in-between our weather recording intervals... More about our weather records

Advertising

Kiritimati weather history for previous 24 hours

 ConditionsComfort  
Time TempWeatherWind HumidityBarometerVisibility
9:00 PM
Sat, Apr 18
81 °FPassing clouds.No wind84%29.80 "HgN/A
8:00 PM81 °FScattered showers. Passing clouds.No wind94%29.80 "HgN/A
7:00 PM81 °FPassing clouds.2 mph84%29.77 "HgN/A
6:00 PM82 °FPartly cloudy.5 mph84%29.74 "HgN/A
4:00 PM84 °FScattered showers. Scattered clouds.2 mph79%29.71 "HgN/A
3:00 PM82 °FScattered clouds.2 mph84%29.74 "HgN/A
2:00 PM82 °FRain showers. Scattered clouds.9 mph84%29.77 "HgN/A
1:00 PM84 °FScattered showers. Scattered clouds.7 mph74%29.80 "HgN/A
11:00 AM86 °FPassing clouds.7 mph70%29.83 "HgN/A
10:00 AM84 °FPassing clouds.7 mph74%29.83 "HgN/A
9:00 AM84 °FPassing clouds.5 mph74%29.83 "HgN/A
8:00 AM82 °FPassing clouds.5 mph84%29.80 "HgN/A
7:00 AM77 °FPassing clouds.No wind100%29.80 "HgN/A
6:00 AM77 °FPassing clouds.No wind94%29.77 "HgN/A
5:00 AM79 °FPassing clouds.2 mph94%29.77 "Hg31 mi
4:00 AM79 °FPassing clouds.3 mph94%29.77 "HgN/A
3:00 AM77 °FPassing clouds.No wind100%29.77 "HgN/A
2:00 AM77 °FPassing clouds.No wind100%29.80 "HgN/A
1:00 AM79 °FPassing clouds.No wind94%29.83 "HgN/A
11:00 PM
Fri, Apr 17
79 °FPassing clouds.2 mph94%29.86 "HgN/A
10:00 PM79 °FPassing clouds.5 mph94%29.86 "HgN/A
Weather by CustomWeather, © 2015

See weather overviewHow to use our weather pages